CDT,Max TemperatureF,Mean TemperatureF,Min TemperatureF,Max Dew PointF,MeanDew PointF,Min DewpointF,Max Humidity, Mean Humidity, Min Humidity, Max Sea Level PressureIn, Mean Sea Level PressureIn, Min Sea Level PressureIn, Max VisibilityMiles, Mean VisibilityMiles, Min VisibilityMiles, Max Wind SpeedMPH, Mean Wind SpeedMPH, Max Gust SpeedMPH,PrecipitationIn, CloudCover, Events, WindDirDegrees
2012-9-1,90,81,73,75,74,72,100,85,62,29.94,29.86,29.76,10,7,0,28,13,40,3.20,7,Fog-Rain-Thunderstorm,205
2012-9-2,84,78,73,72,72,71,94,85,65,29.86,29.83,29.81,10,9,2,12,8,20,0.24,7,Rain,248
2012-9-3,90,80,72,73,71,70,93,76,57,29.88,29.85,29.79,10,10,7,12,6,16,0.00,2,,331
2012-9-4,93,82,70,78,72,68,93,78,50,29.91,29.86,29.82,10,9,5,7,1,,0.00,0,,63
2012-9-5,95,83,73,79,75,71,94,82,62,29.86,29.81,29.76,10,9,7,15,1,20,0.01,2,Rain-Thunderstorm,100
2012-9-6,93,80,69,76,70,63,100,86,52,29.98,29.91,29.86,10,5,0,34,2,59,0.07,2,Fog-Rain-Thunderstorm,50
2012-9-7,93,78,66,79,70,64,94,79,59,29.93,29.81,29.68,10,9,3,20,7,32,0.28,2,Rain-Thunderstorm,230
2012-9-8,79,70,59,68,57,51,88,67,39,30.01,29.95,29.84,10,10,10,14,9,23,0.02,2,Rain,340
2012-9-9,82,68,54,58,55,52,93,68,37,30.12,30.04,29.98,10,10,10,9,2,,0.00,0,,13
2012-9-10,82,68,55,61,57,52,93,73,41,30.20,30.14,30.09,10,10,9,10,2,,0.00,0,,20
2012-9-11,84,70,55,61,57,53,97,71,37,30.19,30.13,30.09,10,9,6,7,1,,0.00,0,,164
2012-9-12,86,72,60,65,60,57,93,72,40,30.20,30.15,30.11,10,9,4,13,2,18,0.00,3,,173
2012-9-13,86,74,63,68,64,60,93,78,56,30.22,30.17,30.12,10,9,4,7,1,,0.00,4,,120
2012-9-14,78,68,62,65,61,57,90,79,65,30.27,30.23,30.19,10,10,7,13,6,16,0.00,1,,22
2012-9-15,68,66,63,63,60,56,94,85,68,30.25,30.18,30.12,10,8,2,10,5,,0.43,7,Rain,23
2012-9-16,79,72,64,70,66,62,94,86,65,30.10,30.05,29.97,9,5,2,7,2,,0.06,7,Rain-Thunderstorm,46
2012-9-17,80,74,68,70,68,65,100,88,62,29.98,29.90,29.77,10,4,0,7,1,,0.00,6,Fog,220
2012-9-18,73,63,51,67,52,42,90,65,34,30.09,29.93,29.77,10,10,10,17,10,24,0.00,3,,345
2012-9-19,75,60,46,50,47,43,93,64,34,30.19,30.11,30.04,10,10,10,9,2,,0.00,0,,214
2012-9-20,84,67,52,61,55,49,90,68,41,30.04,30.00,29.94,10,10,10,13,4,,0.00,0,,225
2012-9-21,81,69,57,66,61,55,93,78,52,30.03,29.91,29.79,10,8,4,21,5,28,0.42,3,Rain-Thunderstorm,206
2012-9-22,82,68,52,57,49,43,86,56,27,30.19,30.04,29.89,10,10,10,10,6,20,0.00,0,,321
2012-9-23,72,58,44,47,43,40,86,64,32,30.31,30.26,30.20,10,10,10,9,3,16,0.00,0,,2
2012-9-24,75,58,43,51,45,40,93,63,34,30.27,30.16,29.99,10,10,10,12,3,,0.00,0,,171
2012-9-25,90,74,60,68,61,52,90,68,43,29.99,29.94,29.86,10,10,9,17,7,29,0.00,0,,198
2012-9-26,84,73,64,70,66,62,94,83,62,30.08,30.03,29.95,10,6,1,16,6,22,0.21,4,Rain-Thunderstorm,225
2012-9-27,82,74,66,68,65,64,94,88,60,30.15,30.10,30.05,10,8,2,10,3,24,1.04,6,Rain-Thunderstorm,39
2012-9-28,73,68,64,67,65,57,94,87,78,30.14,30.09,30.04,10,6,2,10,3,,0.27,7,Rain,27
2012-9-29,78,66,55,57,54,50,90,70,40,30.10,30.04,29.97,10,10,9,10,4,,0.00,0,,28
2012-9-30,72,64,55,62,57,53,93,79,59,29.97,29.88,29.79,10,10,9,6,1,,0.00,0,,9